Home > Weather > Edmundston > Past weeks

Flag for Canada Past Weather in Edmundston, New Brunswick, Canada — Yesterday and Last 2 Weeks

Now
61 °F

Refreshingly cool.


Feels Like: 61 °F
Forecast: 49 / 57 °F
Wind: 3 mph from Northeast

Location: St Leonard

Current Time: May 28, 2016 at 9:18:56 PM

Latest Report: May 28, 2016 at 8:00 PM


Visibility: N/A

Pressure: 30.20 "Hg

Humidity: 57%

Dew Point: 46 °F

Location of EdmundstonLocation

Past Weather in Edmundston — Graph

°F

Edmundston Temperature Yesterday

Maximum temperature yesterday: 55 °F (at 7:00 PM)
Minimum temperature yesterday: 44 °F (at 11:00 AM)
Average temperature yesterday: 49 °F

High & Low Weather Summary for the Past Weeks

 TemperatureHumidityPressure
High79 °F (May 24, 4:00 PM)100% (May 16, 5:00 AM)30.22 "Hg (May 16, 5:00 AM)
Low31 °F (May 16, 11:00 AM)21% (May 23, 5:00 PM)29.36 "Hg (May 16, 6:00 AM)
Average55 °F71%29.89 "Hg
* Reported May 13 8:00 PM — May 28 8:00 PM, Edmundston, Weather by CustomWeather, © 2016

Note: Actual official high and low records may vary slightly from our data, if they occured in-between our weather recording intervals... More about our weather records

Advertising

Edmundston Weather History for the Previous 24 Hours

Scroll right to see more
 ConditionsComfort  
Time TempWeatherWind HumidityBarometerVisibility
8:00 PM
Sat, May 28
61 °FRefreshingly cool.3 mph57%30.20 "HgN/A
7:00 PM63 °FMild.7 mph53%30.19 "HgN/A
6:00 PM64 °FMild.8 mph53%30.17 "HgN/A
5:00 PM63 °FMild.10 mph53%30.16 "HgN/A
4:00 PM62 °FRefreshingly cool.12 mph55%30.16 "HgN/A
3:00 PM61 °FCool.9 mph66%30.15 "HgN/A
2:00 PM60 °FCool.13 mph64%30.15 "HgN/A
1:00 PM60 °FCool.9 mph71%30.14 "HgN/A
12:00 PM58 °FCool.10 mph73%30.12 "HgN/A
11:00 AM58 °FCool.9 mph75%30.09 "HgN/A
10:00 AM56 °FCool.12 mph81%30.07 "HgN/A
9:00 AM56 °FCool.10 mph98%30.06 "HgN/A
8:00 AM54 °FCool.7 mph98%30.04 "HgN/A
7:00 AM52 °FCool.6 mph98%30.02 "HgN/A
6:00 AM51 °FCool.2 mph92%29.99 "HgN/A
5:00 AM52 °FCool.3 mph98%29.98 "HgN/A
4:00 AM52 °FCool.5 mph98%29.97 "HgN/A
3:00 AM51 °FCool.6 mph97%29.96 "HgN/A
2:00 AM50 °FCool.5 mph97%29.97 "HgN/A
1:00 AM50 °FCool.6 mph97%29.96 "HgN/A
12:00 AM51 °FCool.7 mph95%29.97 "HgN/A
11:00 PM
Fri, May 27
52 °FCool.8 mph95%29.99 "HgN/A
10:00 PM53 °FCool.9 mph94%29.98 "HgN/A
9:00 PM54 °FCool.8 mph93%29.98 "HgN/A
Weather by CustomWeather, © 2016

See weather overviewHow to use our weather pages